Preview of NWS' New Version of Forecast
This preview is not operational and should not be used for support decisions.

Regional Weather Roundup (RWR)

Issued by National Weather Service (NWS)

                            
000
ASUS45 KCYS 170110
RWRWY 

WYOMING REGIONAL WEATHER ROUNDUP
NATIONAL WEATHER SERVICE CHEYENNE WY
600 PM MST SAT FEB 16 2019

NOTE:  "FAIR" INDICATES FEW OR NO CLOUDS BELOW 12,000 FEET
WITH NO SIGNIFICANT WEATHER AND/OR OBSTRUCTIONS TO VISIBILITY.

WYZ001-170200-
...YELLOWSTONE NATIONAL PARK...
  
CITY           SKY/WX    TMP DP  RH WIND       PRES   REMARKS
LK YELLOWSTONE   N/A     13   6  74 VRB3      29.68R                  
W YELLOWSTONE  NOT AVBL                                               

$$
WYZ002>013-054>058-071-098>099-170200-
...NORTHERN WYOMING...
  
CITY           SKY/WX    TMP DP  RH WIND       PRES   REMARKS
JACKSON        FLURRIES  20  15  81 SW5       29.72S WCI  13          
CODY           MOCLDY    26  16  65 CALM      29.69R                  
GREYBULL       CLOUDY    30  19  63 NW8       29.69R WCI  22          
WORLAND        CLOUDY    29  19  66 NW6       29.70R WCI  23          
SHERIDAN       CLOUDY    13   7  77 NW20      29.77R WCI  -5          
BUFFALO        CLOUDY    12   7  80 N13       29.68R WCI  -3          
GILLETTE       CLOUDY    14  10  84 N14       29.69R WCI  -1          
HULETT         LGT SNOW  10   5  79 MISG      29.72R                  
NEWCASTLE        N/A     14   9  79 NW16G25   29.65R WCI  -2          

$$
WYZ014>020-022>026-101>103-170200-
...CENTRAL WYOMING...
  
CITY           SKY/WX    TMP DP  RH WIND       PRES   REMARKS
BIG PINEY      MOCLDY    11   3  70 N13       29.70S WCI  -4          
PINEDALE       MOCLDY    10   3  72 W9        29.70R WCI  -2          
DUBOIS         FAIR      16   3  57 W17       29.63R WCI   0          
LANDER         MOCLDY    28   8  43 NW8       29.65R WCI  20          
RIVERTON       MOCLDY    25  14  63 N9        29.66R WCI  15          
CASPER         MOCLDY    23  20  88 NE8       29.65R WCI  14          
DOUGLAS        CLOUDY    25  18  74 N20       29.65R WCI  11          

$$
WYZ021-027>030-104>119-170200-
...SOUTHERN WYOMING...
  
CITY           SKY/WX    TMP DP  RH WIND       PRES   REMARKS
EVANSTON       CLOUDY    18   8  65 SW17      29.74F WCI   3          
KEMMERER       CLEAR     16  10  79 W16       29.72R WCI   0          
FORT BRIDGER   CLEAR     18  12  79 E25       29.76S WCI  -1          
ROCK SPRINGS   PTCLDY    17  10  74 W21       29.71R WCI   0          
DIXON          MOCLDY    19   7  59 W7        29.75S WCI   9          
RAWLINS        MOCLDY    21  13  71 W25G33    29.64R WCI   4          
SARATOGA       FAIR      19  12  73 W20G26    29.66R WCI   4          
LARAMIE        CLOUDY    19   8  62 W16       29.59R WCI   4          
CHEYENNE       CLOUDY    26   9  48 NW22G30   29.58R WCI  12          
TORRINGTON     CLOUDY    30  19  63 N16G23    29.61R WCI  19          
PINE BLUFFS    FAIR      28  19  69 NW8       29.59R WCI  20          

$$